Regional Weather Roundup
Issued by NWS

Home | Current Version | Previous Version | Graphics & Text | Print | Product List | Glossary On
Versions: 1 2 3 4 5 6 7 8 9 10 11 12 13 14 15 16 17 18 19 20 21 22 23 24 25 26 27 28 29 30 31 32 33 34 35 36 37 38 39 40 41 42 43 44 45 46 47 48 49 50
000
ASUS45 KABQ 040501
RWRNM
NEW MEXICO REGIONAL WEATHER ROUNDUP
NATIONAL WEATHER SERVICE ALBUQUERQUE NM
1100 PM MDT FRI JUL 03 2015

NOTE: "FAIR" MEANS FEW OR NO CLOUDS BELOW 12,000 FEET AGL WITH NO
       SIGNIFICANT WEATHER OR OBSTRUCTIONS TO VISION.

      THIS PRODUCT IS RELEASED AS TWO VERSIONS.  ONE VERSION NEAR
      THE TOP OF THE HOUR CONTAINING PRELIMINARY DATA FROM ALBUQUERQUE
      AND OTHER STATIONS.  A FINAL VERSION WITH ADDITIONAL DATA IS
      ISSUED ABOUT 10 MINUTES AFTER THE HOUR.

NMZ501-503-504-510>518-040600-
NORTHWEST PLATEAU/NORTHCENTRAL MOUNTAINS

CITY           SKY/WX    TMP DP  RH WIND       PRES   REMARKS
FARMINGTON     CLEAR     70  54  56 NE14      30.11S
SANTA FE       MOCLDY    66  53  63 CALM      30.21S
TAOS           MOCLDY    61  45  55 E7        30.29R

$$
NMZ402-403-502-505>509-040600-
WESTCENTRAL MOUNTAINS/SOUTHWEST MOUNTAINS

CITY           SKY/WX    TMP DP  RH WIND       PRES   REMARKS
GALLUP         CLOUDY    67  53  61 W5        30.22R
GRANTS         CLOUDY    66  57  74 CALM      30.23S
SILVER CITY      N/A     73  57  56 SE8       30.16R

$$
NMZ407-409-411-412-040600-
SOUTHERN DESERTS

CITY           SKY/WX    TMP DP  RH WIND       PRES   REMARKS
LORDSBURG      FAIR      79  55  44 SE14G22   30.04R
DEMING         LGT RAIN  69  65  86 S15G24    30.07S
HOLLOMAN AFB   CLOUDY    72  66  83 SW3       30.04R
ALAMOGORDO     CLOUDY    73  66  78 SE7       30.06S
T OR C         MOCLDY    76  60  57 NE7       30.10R

$$
NMZ519>523-040600-
CENTRAL VALLEYS/CENTRAL HIGHLANDS

CITY           SKY/WX    TMP DP  RH WIND       PRES   REMARKS
ALBUQUERQUE    PTCLDY    75  55  49 S7        30.14R
DOUBLE EAGLE   MOCLDY    68  58  72 CALM      30.18S
CLINES CORNERS MOCLDY    62  56  80 S8        30.27R
BELEN          FAIR      72  55  54 NE6       30.13R
SOCORRO        NOT AVBL

$$
NMZ524>526-539-540-040600-
SOUTHCENTRAL MOUNTAINS

CITY           SKY/WX    TMP DP  RH WIND       PRES   REMARKS
RUIDOSO        NOT AVBL

$$
NMZ527>531-040600-
NORTHEAST HIGHLANDS/NORTHEAST PLAINS

CITY           SKY/WX    TMP DP  RH WIND       PRES   REMARKS
LAS VEGAS      PTCLDY    59  55  87 NE8       30.28R
RATON          MOCLDY    63  53  70 SE7       30.21R
CLAYTON        PTCLDY    63  58  83 S5        30.16R

$$
NMZ532>537-040600-
EASTCENTRAL PLAINS

CITY           SKY/WX    TMP DP  RH WIND       PRES   REMARKS
TUCUMCARI      CLOUDY    68  59  73 E23G32    30.13R
CANNON AFB     CLOUDY    72  65  79 S5        30.13R
CLOVIS AIRPORT CLOUDY    70  61  73 NE16G22     N/A

$$
NMZ028-029-538-040600-
SOUTHEAST PLAINS

CITY           SKY/WX    TMP DP  RH WIND       PRES   REMARKS
ROSWELL        MOCLDY    73  60  63 SE5       30.06R
ARTESIA        PTCLDY    75  63  64 CALM      30.07R
CARLSBAD       PTCLDY    74  64  71 N3        30.04R
HOBBS          PTCLDY    73  63  68 CALM      30.09R


$$



USA.gov is the U.S. government's official web portal to all federal, state and local government web resources and services.